Time,TemperatureF,DewpointF,PressureIn,WindDirection,WindDirectionDegrees,WindSpeedMPH,WindSpeedGustMPH,Humidity,HourlyPrecipIn,Conditions,Clouds,dailyrainin,SolarRadiationWatts/m^2,SoftwareType,DateUTC
2013-08-23 00:01:00,64.0,50.0,-100.00,NE,55,0.0,0.0,60,0.00,,,0.02,0.000000,,2013-08-23 07:01:00,
2013-08-23 00:42:00,61.0,50.0,-100.00,North,354,2.0,4.0,66,0.00,,,0.02,0.000000,,2013-08-23 07:42:00,
2013-08-23 00:52:00,61.0,50.0,-100.00,North,354,2.0,4.0,66,0.00,,,0.02,0.000000,,2013-08-23 07:52:00,
2013-08-23 01:02:00,61.0,50.0,-100.00,North,354,2.0,4.0,66,0.00,,,0.02,0.000000,,2013-08-23 08:02:00,
2013-08-23 01:42:00,59.0,50.0,-100.00,East,90,0.0,8.0,72,0.00,,,0.02,0.000000,,2013-08-23 08:42:00,
2013-08-23 01:52:00,59.0,50.0,-100.00,East,90,0.0,8.0,72,0.00,,,0.02,0.000000,,2013-08-23 08:52:00,
2013-08-23 02:01:00,59.0,50.0,-100.00,East,90,0.0,8.0,72,0.00,,,0.02,0.000000,,2013-08-23 09:01:00,
2013-08-23 02:43:00,59.0,52.0,-100.00,West,261,2.0,6.0,79,0.01,,,0.03,0.000000,,2013-08-23 09:43:00,
2013-08-23 02:53:00,59.0,52.0,-100.00,West,261,2.0,6.0,79,0.01,,,0.03,0.000000,,2013-08-23 09:53:00,
2013-08-23 03:03:00,59.0,52.0,-100.00,West,261,2.0,6.0,79,0.01,,,0.03,0.000000,,2013-08-23 10:03:00,
2013-08-23 03:42:00,54.0,54.0,-100.00,East,99,0.0,8.0,100,0.10,,,0.13,0.000000,,2013-08-23 10:42:00,
2013-08-23 03:52:00,54.0,54.0,-100.00,East,99,0.0,8.0,100,0.10,,,0.13,0.000000,,2013-08-23 10:52:00,
2013-08-23 04:02:00,54.0,54.0,-100.00,East,99,0.0,8.0,100,0.10,,,0.13,0.000000,,2013-08-23 11:02:00,
2013-08-23 04:42:00,54.0,54.0,-100.00,NNE,22,0.0,8.0,100,0.02,,,0.15,0.000000,,2013-08-23 11:42:00,
2013-08-23 04:53:00,54.0,54.0,-100.00,NNE,22,0.0,8.0,100,0.02,,,0.15,0.000000,,2013-08-23 11:53:00,
2013-08-23 05:01:00,54.0,54.0,-100.00,NNE,22,0.0,8.0,100,0.02,,,0.15,0.000000,,2013-08-23 12:01:00,
2013-08-23 05:42:00,56.0,56.0,-100.00,ENE,67,0.0,8.0,100,0.01,,,0.16,0.000000,,2013-08-23 12:42:00,
2013-08-23 05:52:00,56.0,56.0,-100.00,ENE,67,0.0,8.0,100,0.01,,,0.16,0.000000,,2013-08-23 12:52:00,
2013-08-23 06:02:00,56.0,56.0,-100.00,ENE,67,0.0,8.0,100,0.01,,,0.16,0.000000,,2013-08-23 13:02:00,
2013-08-23 06:42:00,55.0,55.0,-100.00,East,92,0.0,7.0,100,0.00,,,0.16,0.000000,,2013-08-23 13:42:00,
2013-08-23 06:52:00,55.0,55.0,-100.00,East,92,0.0,7.0,100,0.00,,,0.16,0.000000,,2013-08-23 13:52:00,
2013-08-23 07:02:00,55.0,55.0,-100.00,East,92,0.0,7.0,100,0.00,,,0.16,0.000000,,2013-08-23 14:02:00,
2013-08-23 07:42:00,54.0,54.0,-100.00,North,356,0.0,8.0,100,0.00,,,0.16,82.000000,,2013-08-23 14:42:00,
2013-08-23 07:52:00,54.0,54.0,-100.00,North,356,0.0,8.0,100,0.00,,,0.16,82.000000,,2013-08-23 14:52:00,
2013-08-23 08:01:00,54.0,54.0,-100.00,North,356,0.0,8.0,100,0.00,,,0.16,82.000000,,2013-08-23 15:01:00,
2013-08-23 08:44:00,59.0,57.0,-100.00,NW,325,0.0,8.0,94,0.00,,,0.16,83.000000,,2013-08-23 15:44:00,
2013-08-23 08:54:00,59.0,57.0,-100.00,NW,325,0.0,8.0,94,0.00,,,0.16,83.000000,,2013-08-23 15:54:00,
2013-08-23 09:05:00,59.0,57.0,-100.00,NW,325,0.0,8.0,94,0.00,,,0.16,83.000000,,2013-08-23 16:05:00,
2013-08-23 09:42:00,66.0,59.0,-100.00,NNE,20,0.0,5.0,79,0.00,,,0.16,473.000000,,2013-08-23 16:42:00,
2013-08-23 09:53:00,66.0,59.0,-100.00,NNE,20,0.0,5.0,79,0.00,,,0.16,473.000000,,2013-08-23 16:53:00,
2013-08-23 10:03:00,66.0,59.0,-100.00,NNE,20,0.0,5.0,79,0.00,,,0.16,473.000000,,2013-08-23 17:03:00,
2013-08-23 10:43:00,69.0,56.0,-100.00,SSW,192,0.0,3.0,64,0.00,,,0.16,714.000000,,2013-08-23 17:43:00,
2013-08-23 10:53:00,69.0,56.0,-100.00,SSW,192,0.0,3.0,64,0.00,,,0.16,714.000000,,2013-08-23 17:53:00,
2013-08-23 11:02:00,69.0,56.0,-100.00,SSW,192,0.0,3.0,64,0.00,,,0.16,714.000000,,2013-08-23 18:02:00,
2013-08-23 11:42:00,70.0,58.0,-100.00,SSE,163,0.0,4.0,65,0.00,,,0.16,188.000000,,2013-08-23 18:42:00,
2013-08-23 11:52:00,70.0,58.0,-100.00,SSE,163,0.0,4.0,65,0.00,,,0.16,188.000000,,2013-08-23 18:52:00,
2013-08-23 12:01:00,70.0,58.0,-100.00,SSE,163,0.0,4.0,65,0.00,,,0.16,188.000000,,2013-08-23 19:01:00,
2013-08-23 12:42:00,70.0,56.0,-100.00,SSE,156,1.0,4.0,61,0.00,,,0.16,224.000000,,2013-08-23 19:42:00,
2013-08-23 12:52:00,70.0,56.0,-100.00,SSE,156,1.0,4.0,61,0.00,,,0.16,224.000000,,2013-08-23 19:52:00,
2013-08-23 13:01:00,70.0,56.0,-100.00,SSE,156,1.0,4.0,61,0.00,,,0.16,224.000000,,2013-08-23 20:01:00,
2013-08-23 13:42:00,73.0,52.0,-100.00,SW,222,3.0,7.0,47,0.00,,,0.14,1045.000000,,2013-08-23 20:42:00,
2013-08-23 13:52:00,73.0,52.0,-100.00,SW,222,3.0,7.0,47,0.00,,,0.14,1045.000000,,2013-08-23 20:52:00,
2013-08-23 14:02:00,73.0,52.0,-100.00,SW,222,3.0,7.0,47,0.00,,,0.14,1045.000000,,2013-08-23 21:02:00,
2013-08-23 14:44:00,77.0,53.0,-100.00,SW,225,2.0,9.0,43,0.00,,,0.14,906.000000,,2013-08-23 21:44:00,
2013-08-23 14:54:00,77.0,53.0,-100.00,SW,225,2.0,9.0,43,0.00,,,0.14,906.000000,,2013-08-23 21:54:00,
2013-08-23 15:04:00,77.0,53.0,-100.00,SW,225,2.0,9.0,43,0.00,,,0.14,906.000000,,2013-08-23 22:04:00,
2013-08-23 15:43:00,76.0,49.0,-100.00,ENE,70,2.0,11.0,39,0.00,,,0.14,686.000000,,2013-08-23 22:43:00,
2013-08-23 15:53:00,76.0,49.0,-100.00,ENE,70,2.0,11.0,39,0.00,,,0.14,686.000000,,2013-08-23 22:53:00,
2013-08-23 16:03:00,76.0,49.0,-100.00,ENE,70,2.0,11.0,39,0.00,,,0.14,686.000000,,2013-08-23 23:03:00,
2013-08-23 16:43:00,77.0,49.0,-100.00,ESE,110,3.0,11.0,38,0.00,,,0.14,767.000000,,2013-08-23 23:43:00,
2013-08-23 16:54:00,77.0,49.0,-100.00,ESE,110,3.0,11.0,38,0.00,,,0.14,767.000000,,2013-08-23 23:54:00,
2013-08-23 17:02:00,77.0,49.0,-100.00,ESE,110,3.0,11.0,38,0.00,,,0.14,767.000000,,2013-08-24 00:02:00,
2013-08-23 17:43:00,74.0,51.0,-100.00,South,184,0.0,9.0,45,0.00,,,0.14,595.000000,,2013-08-24 00:43:00,
2013-08-23 17:53:00,74.0,51.0,-100.00,South,184,0.0,9.0,45,0.00,,,0.14,595.000000,,2013-08-24 00:53:00,
2013-08-23 18:02:00,74.0,51.0,-100.00,South,184,0.0,9.0,45,0.00,,,0.14,595.000000,,2013-08-24 01:02:00,
2013-08-23 18:42:00,66.0,48.0,-100.00,NW,324,0.0,10.0,52,0.00,,,0.14,30.000000,,2013-08-24 01:42:00,
2013-08-23 18:53:00,66.0,48.0,-100.00,NW,324,0.0,10.0,52,0.00,,,0.14,30.000000,,2013-08-24 01:53:00,
2013-08-23 19:02:00,66.0,48.0,-100.00,NW,324,0.0,10.0,52,0.00,,,0.14,30.000000,,2013-08-24 02:02:00,
2013-08-23 19:42:00,61.0,47.0,-100.00,WNW,286,0.0,9.0,59,0.00,,,0.14,78.000000,,2013-08-24 02:42:00,
2013-08-23 19:52:00,61.0,47.0,-100.00,WNW,286,0.0,9.0,59,0.00,,,0.14,78.000000,,2013-08-24 02:52:00,
2013-08-23 20:02:00,61.0,47.0,-100.00,WNW,286,0.0,9.0,59,0.00,,,0.14,78.000000,,2013-08-24 03:02:00,
2013-08-23 20:44:00,58.0,47.0,-100.00,South,188,2.0,7.0,67,0.00,,,0.14,1.000000,,2013-08-24 03:44:00,
2013-08-23 20:54:00,58.0,47.0,-100.00,South,188,2.0,7.0,67,0.00,,,0.14,1.000000,,2013-08-24 03:54:00,
2013-08-23 21:04:00,58.0,47.0,-100.00,South,188,2.0,7.0,67,0.00,,,0.14,1.000000,,2013-08-24 04:04:00,
2013-08-23 21:44:00,54.0,46.0,-100.00,SW,223,3.0,11.0,74,0.00,,,0.14,0.000000,,2013-08-24 04:44:00,
2013-08-23 21:53:00,54.0,46.0,-100.00,SW,223,3.0,11.0,74,0.00,,,0.14,0.000000,,2013-08-24 04:53:00,
2013-08-23 22:03:00,54.0,46.0,-100.00,SW,223,3.0,11.0,74,0.00,,,0.14,0.000000,,2013-08-24 05:03:00,
2013-08-23 22:43:00,51.0,45.0,-100.00,NNE,31,0.0,11.0,80,0.00,,,0.14,0.000000,,2013-08-24 05:43:00,
2013-08-23 22:53:00,51.0,45.0,-100.00,NNE,31,0.0,11.0,80,0.00,,,0.14,0.000000,,2013-08-24 05:53:00,
2013-08-23 23:02:00,51.0,45.0,-100.00,NNE,31,0.0,11.0,80,0.00,,,0.14,0.000000,,2013-08-24 06:02:00,
2013-08-23 23:42:00,53.0,49.0,-100.00,North,9,2.0,8.0,85,0.00,,,0.14,0.000000,,2013-08-24 06:42:00,
2013-08-23 23:52:00,53.0,49.0,-100.00,North,9,2.0,8.0,85,0.00,,,0.14,0.000000,,2013-08-24 06:52:00,